SCP
0 0 0 0 0 0 0 0 0 0 0 0 0 0 0 0 0 0 0 0 0 1 0 1 1 1 0 0 0 0 0 0 0 0 0 0 0 0 0 0 0 0 0 0 0 0 0 0 0
0 0 0 0 0 0 0 0 0 0 0 0 0 0 0 0 0 0 0 0 1 1 1 1 1 1 1 0 0 0 0 0 0 0 0 0 0 0 0 0 0 0 0 0 0 -0 -0 0 0
0 0 0 0 0 0 0 0 0 0 0 0 0 0 0 0 0 0 0 1 1 1 1 1 1 1 1 0 0 0 0 0 0 0 0 0 0 0 0 0 0 0 0 -0 -0 -0 -0 -0 -0
0 0 0 0 0 0 0 0 0 0 0 0 0 0 0 0 1 1 1 1 1 1 1 1 1 1 1 1 0 0 0 0 0 0 0 0 0 0 0 0 0 0 0 -0 -0 -0 -0 -0 -0
0 0 0 0 0 0 0 0 0 0 0 1 1 1 0 1 1 1 1 1 1 1 1 1 1 1 1 1 0 0 0 0 0 0 0 0 0 0 0 0 0 0 0 -0 -0 -0 -0 -0 -0
0 0 0 0 0 0 0 0 0 0 1 1 1 1 1 1 1 1 1 1 1 1 1 1 1 1 1 1 0 0 0 0 0 0 0 0 0 0 0 0 0 0 -0 -0 -0 -0 -0 -0 -0
0 0 0 0 0 0 0 0 0 0 1 1 1 1 1 1 1 1 1 1 1 1 1 1 1 1 1 0 0 0 0 0 0 0 0 0 0 0 0 0 0 0 -0 -0 -0 -0 -0 -0 -0
0 0 0 0 0 0 0 0 0 0 1 1 1 1 1 1 2 1 1 1 1 1 1 1 1 1 1 0 0 0 0 0 0 0 0 0 0 0 0 0 0 0 0 -0 -0 -0 -0 0 0
0 0 0 0 0 0 0 0 0 0 1 1 1 1 1 2 2 2 1 1 1 1 1 1 1 1 0 0 0 0 0 0 0 0 0 0 -0 -0 -0 0 0 0 0 -0 -0 -0 0 0 0
0 0 0 0 0 0 0 0 0 0 1 1 1 2 2 2 2 2 1 1 1 0 0 0 1 1 0 0 0 0 0 0 0 -0 -0 -0 -0 -0 -0 -0 0 0 0 0 0 0 0 0 0
0 0 0 0 0 0 0 0 0 0 1 1 1 2 2 2 2 2 1 1 1 0 0 0 0 0 0 0 0 0 0 0 0 -0 -0 -0 -0 -0 -0 -0 -0 -0 0 0 0 0 0 0 0
0 0 0 0 0 0 0 0 0 0 1 1 2 2 2 2 2 2 1 1 1 0 0 0 0 0 0 0 0 0 0 0 0 -0 -0 -0 -0 -0 -0 -0 -0 -0 -0 -0 0 0 0 0 0
0 0 0 0 0 0 0 0 0 0 1 1 2 2 2 2 2 1 1 1 1 1 0 0 0 0 0 0 0 0 0 0 0 -0 -0 -0 -0 0 0 -0 -0 -0 -0 -0 0 0 0 0 0
0 0 0 0 0 0 0 0 0 0 1 1 2 2 2 2 1 1 1 1 1 1 1 0 0 0 0 0 0 0 0 0 0 0 0 0 0 0 0 0 0 -0 -0 -0 0 0 0 0 0
-0 -0 0 0 0 0 0 0 0 0 1 1 2 2 2 2 2 1 1 1 1 1 1 0 0 0 0 0 0 0 0 0 0 0 0 0 0 0 0 0 0 0 0 0 0 0 0 0 0
0 0 0 0 0 0 0 0 0 0 1 1 2 2 2 2 2 1 1 1 1 1 1 1 0 0 0 0 0 0 0 0 0 0 0 0 0 0 0 0 0 0 0 0 0 0 0 0 0
0 0 0 0 0 0 0 0 0 0 1 1 1 2 2 2 2 1 1 1 1 1 1 1 1 0 0 0 0 0 0 0 0 0 0 0 0 0 0 0 0 0 0 0 0 0 0 0 0
0 0 0 0 0 0 0 0 0 0 1 1 1 2 2 2 1 1 1 1 1 1 1 1 1 1 0 0 0 0 0 0 0 0 0 0 0 0 0 0 0 0 0 0 0 0 0 0 0
0 0 0 0 0 0 0 0 0 0 1 1 1 2 2 2 2 1 1 1 1 1 1 1 1 1 0 0 0 0 0 0 0 0 0 0 0 0 0 0 0 0 0 0 0 0 0 0 0
0 0 0 0 0 0 0 0 0 0 1 1 1 1 1 2 2 1 1 1 1 1 1 1 1 1 0 0 0 0 0 0 0 0 0 0 0 0 0 0 0 0 0 0 0 0 0 0 0
0 0 0 0 0 0 0 0 0 0 0 1 1 1 1 1 2 1 1 1 1 1 1 1 1 1 0 0 0 0 0 0 0 0 0 0 0 0 0 0 0 0 0 0 0 0 0 0 0
0 0 0 0 0 0 0 0 0 0 0 0 1 1 1 1 1 1 1 1 1 1 1 1 1 0 0 0 0 0 0 0 0 0 0 0 0 0 0 0 0 0 0 0 0 0 0 0 0
0 0 0 0 0 0 0 0 0 0 0 0 0 1 1 1 1 1 1 1 1 1 1 1 0 0 0 0 0 0 0 0 0 0 0 0 0 0 0 0 0 0 0 0 0 0 0 0 0
0 0 0 0 0 0 0 0 0 0 0 0 0 0 0 1 1 1 1 1 1 1 0 0 0 0 0 0 0 0 0 0 0 0 0 0 0 0 0 0 0 0 0 0 0 0 0 0 0
0 0 0 0 0 0 0 0 0 0 0 0 0 0 0 0 0 1 1 1 1 0 0 0 0 0 0 0 0 0 0 0 0 0 0 0 0 0 0 0 0 0 0 0 0 0 0 0 0
0 0 0 0 0 0 0 0 0 0 0 0 0 0 0 0 0 0 0 0 0 0 0 0 0 0 0 0 0 0 0 0 0 0 0 0 0 0 0 0 0 0 0 0 0 0 0 0 0
0 0 0 0 0 0 0 0 0 0 0 0 0 0 0 0 0 0 0 0 0 0 0 0 0 0 0 0 0 0 0 0 0 0 0 0 0 0 0 0 0 0 0 0 0 0 0 0 0
0 0 0 0 0 0 0 0 0 0 0 0 0 0 0 0 0 0 0 0 0 0 0 0 0 0 0 0 0 0 0 0 0 0 0 0 0 0 0 0 0 0 0 0 0 0 0 0 0
0 0 0 0 0 0 0 0 0 0 0 0 0 0 0 0 1 1 0 0 0 0 0 0 0 0 0 0 0 0 0 0 0 0 0 0 0 0 0 0 0 0 0 0 0 0 0 0 0
0 0 0 0 0 0 0 0 0 0 0 0 0 0 0 1 1 1 0 0 0 0 0 0 0 0 0 0 0 0 0 0 0 0 0 0 0 0 0 0 0 0 0 0 0 0 0 0 0
Wind_Speed
5 4 2 1 3 3 4 4 3 5 5 5 9 10 8 5 4 4 4 14 18 16 13 16 19 19 19 19 18 17 17 16 16 15 15 14 14 14 14 13 12 12 12 12 12 12 12 12 13
3 4 1 3 4 3 5 2 3 5 8 10 10 9 7 5 6 8 7 16 19 16 12 14 20 19 19 19 18 17 17 16 15 15 14 14 14 13 13 13 12 12 12 11 11 12 11 12 12
3 1 2 3 1 2 5 3 1 5 10 10 7 5 4 4 7 6 10 18 16 14 11 16 21 20 20 19 18 17 17 16 15 14 14 14 13 13 13 13 12 12 11 11 11 11 11 11 11
1 3 3 2 5 8 8 7 2 3 6 7 8 5 2 2 5 11 19 18 17 13 11 16 21 21 20 19 18 17 17 16 15 14 14 14 13 13 13 13 12 12 11 11 11 11 10 10 11
2 3 2 2 5 6 7 5 4 4 5 5 8 5 2 3 12 20 19 18 17 13 10 14 21 21 20 19 18 18 17 16 15 14 14 13 13 13 13 13 12 12 11 10 10 10 9 9 9
2 3 1 3 6 6 4 4 5 7 7 7 8 6 1 4 15 17 16 16 16 15 11 12 20 20 20 19 18 17 17 16 15 14 14 13 13 13 12 12 12 11 10 10 9 8 8 8 8
3 2 3 4 6 5 3 2 6 7 7 6 9 7 2 5 12 14 14 14 14 14 12 9 11 14 18 19 18 17 17 16 15 14 14 13 13 12 12 11 11 11 10 9 8 7 7 7 6
5 2 3 4 5 5 3 1 6 9 6 7 8 10 7 9 11 13 13 13 13 12 11 9 9 9 9 11 17 17 16 16 15 14 14 13 13 12 12 10 10 10 9 8 8 7 6 5 5
3 2 5 6 5 5 3 1 2 4 7 4 3 6 10 16 15 14 12 11 12 12 9 9 9 8 8 8 13 14 15 15 13 11 14 11 5 5 6 8 10 10 9 8 7 6 5 4 3
4 3 9 8 6 6 3 1 4 4 6 4 4 6 14 18 17 17 16 16 15 14 11 9 10 9 8 9 7 5 6 6 5 4 5 4 3 3 5 8 10 9 9 7 6 5 4 3 2
5 8 11 11 10 5 2 1 1 7 4 6 9 13 15 16 15 17 17 17 16 16 13 11 10 10 8 6 6 3 3 4 4 5 5 4 3 3 3 2 4 4 5 3 3 2 1 1 2
5 10 10 10 8 4 2 1 0 3 6 9 14 16 15 15 15 15 17 16 14 14 13 11 10 9 8 7 6 5 4 4 3 4 5 4 3 3 3 2 2 2 1 2 1 1 1 1 2
7 8 8 8 6 3 1 0 2 2 5 10 14 15 14 13 13 11 12 12 13 13 12 11 10 8 8 7 6 7 5 5 5 4 5 5 4 4 4 3 3 3 2 2 2 2 2 2 2
6 8 11 9 6 3 0 2 2 3 7 12 14 13 12 13 13 11 12 12 13 14 14 11 10 8 8 7 6 6 5 5 4 4 5 5 4 4 4 3 3 3 3 3 3 3 2 2 2
6 8 11 7 4 3 3 3 3 6 9 11 12 12 11 10 11 12 14 14 13 13 13 12 11 10 10 9 7 6 5 5 5 4 5 5 5 5 4 3 3 3 3 3 2 2 2 2 2
6 5 6 9 5 4 3 4 6 5 9 9 10 11 11 9 9 10 13 12 12 12 12 12 11 9 8 7 6 5 5 6 5 4 4 5 5 5 4 3 3 3 3 3 2 2 2 1 2
3 3 7 10 6 3 1 4 4 5 8 8 8 9 10 8 7 8 11 13 13 13 13 11 9 9 8 7 5 4 4 5 4 4 4 4 5 5 4 3 3 3 2 2 3 2 2 2 2
5 5 8 10 7 3 2 3 1 5 8 9 9 9 9 10 9 9 10 11 11 11 11 11 10 9 8 5 4 3 3 3 4 4 4 5 4 5 4 3 3 3 3 2 2 2 2 2 2
8 10 12 14 9 2 3 2 2 5 7 8 7 8 8 8 7 8 10 11 10 9 9 10 9 8 7 5 5 4 4 3 3 3 5 6 5 5 4 3 3 3 3 3 3 2 3 2 2
11 10 11 11 7 1 1 1 1 1 6 8 9 9 9 7 7 8 9 10 10 10 9 9 9 9 8 6 5 4 4 3 3 3 4 5 5 5 4 4 3 3 3 3 3 3 2 1 2
13 10 8 8 5 5 3 4 3 2 1 2 5 7 8 11 11 10 10 9 10 10 10 10 9 9 8 7 5 4 4 3 2 3 3 4 5 5 5 5 4 3 3 3 3 3 4 2 1
11 12 9 6 2 4 1 1 5 2 2 0 2 4 6 8 8 9 9 9 10 10 9 8 9 8 8 8 8 8 6 5 5 4 3 4 4 5 5 5 5 4 3 3 3 3 3 3 2
11 11 6 3 1 2 4 2 6 2 2 2 2 3 4 6 8 9 9 9 9 9 9 8 8 8 7 8 9 8 6 4 4 4 5 4 3 4 5 5 5 4 3 3 3 4 3 3 3
9 4 5 6 6 2 4 2 5 4 5 3 3 4 4 5 6 7 7 7 6 7 7 8 8 8 7 8 8 9 9 8 7 6 5 4 2 3 4 5 5 4 4 4 4 4 4 3 3
3 3 4 5 5 5 3 1 7 6 4 3 4 4 5 5 6 7 7 7 7 8 8 8 9 8 8 8 8 8 9 9 9 7 6 5 3 3 4 4 4 4 4 4 4 4 3 3 3
5 9 8 5 5 5 3 3 6 5 2 1 2 3 5 5 6 7 8 8 8 8 8 8 9 8 8 8 8 7 8 6 5 6 5 5 4 4 5 5 5 5 4 4 3 2 2 2 2
5 5 10 8 3 0 3 3 5 1 2 4 4 3 3 6 7 7 7 7 7 7 8 9 9 8 8 8 8 7 7 6 6 6 5 4 4 4 6 6 5 4 4 4 4 2 2 2 2
8 7 6 6 4 2 3 3 4 3 3 3 4 5 4 6 7 7 7 6 6 6 7 8 8 8 7 7 7 7 6 6 6 6 6 5 5 4 6 5 5 5 4 4 4 2 2 2 2
2 3 5 5 6 7 3 6 6 8 7 8 7 6 7 7 8 8 7 7 7 6 7 8 8 7 7 7 6 7 6 6 6 6 6 5 4 5 6 5 5 5 4 4 4 3 2 2 1
5 5 7 5 3 4 4 6 4 6 7 7 6 6 7 7 8 8 8 8 7 7 7 7 8 8 8 7 7 7 6 6 6 6 6 5 5 5 5 5 4 4 4 4 4 3 3 3 2
Wind_Direction
205 203 178 64 33 25 286 257 150 99 74 73 86 94 100 101 135 150 132 137 137 142 147 147 145 141 138 135 133 130 128 126 124 122 120 119 118 117 116 116 115 113 111 111 111 112 114 118 121
204 199 139 54 62 352 293 267 120 121 124 106 84 86 83 70 91 109 122 140 139 141 144 146 145 142 140 138 137 135 133 131 130 127 126 125 123 121 121 119 117 115 114 114 114 115 117 120 123
223 188 84 63 53 242 279 282 76 115 119 108 95 66 82 105 114 126 141 139 135 138 142 148 146 144 143 141 140 139 137 136 134 132 130 129 127 125 124 121 120 118 116 116 116 117 118 121 123
123 51 49 64 257 250 246 253 181 125 99 86 101 86 72 134 138 135 138 139 136 138 142 148 146 145 144 143 142 141 140 139 138 136 133 130 129 127 125 123 121 119 117 117 117 118 120 122 125
88 80 45 304 262 261 246 232 181 143 117 107 109 108 40 36 118 132 141 141 139 138 142 147 147 146 146 145 145 144 143 142 141 140 136 133 131 128 126 125 124 123 121 120 119 120 122 123 125
60 80 64 278 277 275 260 213 151 117 114 124 114 115 84 120 130 139 141 140 141 140 142 145 147 147 147 148 148 148 147 146 145 143 140 138 136 133 131 131 130 128 126 125 124 124 124 125 125
153 131 224 250 278 287 262 179 130 130 127 146 133 122 137 147 139 137 137 135 138 139 141 144 148 150 151 152 152 151 150 149 149 147 144 143 141 139 139 138 137 135 134 132 131 129 128 126 125
165 114 278 266 270 281 253 164 132 130 137 134 134 144 171 167 137 131 132 133 138 142 146 149 149 148 150 153 155 154 153 154 153 152 151 150 149 147 147 145 145 144 143 141 138 135 131 128 126
144 94 251 243 254 274 268 113 126 107 115 119 141 158 148 140 134 133 134 136 146 151 154 154 151 148 147 152 160 157 157 159 158 158 159 155 144 145 150 158 158 155 153 151 148 145 139 129 115
137 190 240 232 242 263 280 166 146 109 95 91 86 109 129 137 144 148 153 158 160 162 165 163 158 156 155 161 150 150 154 156 153 154 154 143 151 170 171 179 171 166 163 162 162 159 151 117 84
191 219 254 267 264 260 282 285 119 127 142 171 160 151 147 142 150 157 164 165 168 165 167 167 164 163 164 153 149 151 148 151 158 164 162 160 165 182 174 173 176 169 169 161 171 160 147 140 135
249 260 264 274 280 282 254 206 90 159 184 168 162 155 152 151 159 166 169 169 165 165 169 164 167 167 168 156 158 160 158 166 172 177 172 165 167 171 166 169 171 173 168 170 162 166 199 181 168
271 282 290 283 288 275 281 206 163 192 141 134 143 147 155 158 162 169 165 162 162 166 166 166 166 169 165 158 168 168 170 176 177 172 172 168 164 164 167 172 179 188 180 174 169 181 189 170 157
283 308 308 301 298 289 148 309 118 193 135 131 141 154 163 165 165 162 162 165 169 169 165 165 167 173 166 166 172 166 169 168 170 169 171 166 159 159 158 164 174 186 185 178 173 178 173 165 151
317 325 317 303 297 281 57 340 238 180 140 137 149 154 156 163 164 167 168 168 169 167 163 165 169 173 174 172 173 162 164 162 165 165 163 157 154 153 152 156 167 178 174 165 157 156 133 144 146
342 338 312 296 298 285 95 259 252 165 139 144 157 156 155 163 170 166 162 162 164 160 161 168 170 167 169 166 161 155 159 156 159 156 152 151 150 148 144 148 161 162 149 145 141 135 125 120 131
346 307 290 296 287 296 80 253 256 157 144 147 154 157 153 152 161 159 158 163 165 164 164 162 162 161 165 158 149 145 147 148 150 147 145 148 147 146 140 146 156 145 130 133 151 130 135 140 150
265 281 288 288 287 297 293 248 208 156 149 153 155 157 153 158 168 162 158 161 162 162 162 159 162 160 156 149 132 119 117 134 140 143 147 144 142 142 135 137 139 129 120 119 125 125 116 132 153
257 275 281 280 277 252 245 232 186 162 151 154 158 161 159 158 156 152 154 157 157 160 162 162 163 162 154 151 148 141 147 147 148 154 153 147 142 136 131 132 129 126 132 146 140 123 107 99 110
265 274 282 287 290 219 202 3 53 162 176 169 166 168 159 144 148 153 154 158 165 170 171 166 167 163 161 161 153 147 145 149 155 154 147 147 143 141 145 139 135 131 124 121 120 115 110 89 121
266 257 259 273 321 12 68 4 330 306 4 135 154 159 158 162 164 163 164 165 168 173 177 174 171 168 167 158 139 128 116 109 117 140 150 154 149 146 145 142 136 136 132 139 140 132 128 122 72
262 260 257 274 357 315 42 252 289 295 317 358 141 149 164 168 164 168 168 171 177 179 175 169 168 170 168 158 155 157 158 163 173 166 159 151 148 149 147 141 137 135 135 139 144 131 127 124 102
247 256 254 258 97 18 352 114 283 310 274 265 211 170 168 174 172 173 173 174 174 172 172 172 166 169 166 163 162 162 164 163 152 145 146 148 149 151 148 141 133 128 129 135 126 115 111 120 131
257 291 8 39 65 1 272 165 268 250 231 236 204 177 169 178 177 170 164 156 157 162 166 169 169 172 169 168 166 165 164 158 152 154 157 157 153 152 152 140 135 133 133 140 137 127 124 123 120
280 87 24 356 8 261 274 181 248 257 249 205 200 199 180 172 170 167 159 159 162 165 165 166 169 174 173 169 168 168 164 162 164 166 165 161 161 162 169 147 142 141 147 147 136 125 125 132 128
227 145 158 194 222 269 315 231 257 270 277 186 155 169 169 168 175 172 168 167 167 167 165 165 171 173 173 170 168 163 159 161 166 167 162 167 171 171 165 154 149 148 148 143 136 130 137 132 132
201 195 173 147 171 238 275 275 300 303 63 93 119 138 176 169 172 172 164 164 164 163 166 168 168 168 170 166 159 160 159 160 164 161 157 163 165 164 159 157 152 151 148 142 136 128 141 138 138
180 169 105 119 152 233 269 238 227 235 167 145 159 179 182 172 170 166 163 166 166 161 158 160 160 161 158 162 167 165 161 158 154 150 156 160 162 154 155 158 156 153 149 145 135 131 137 133 140
152 136 125 128 149 155 210 262 223 195 186 182 189 182 176 176 171 165 164 161 155 150 154 155 157 155 160 166 167 162 160 152 145 147 152 152 150 153 159 161 159 156 153 149 142 151 145 141 132
152 167 142 144 215 161 161 257 258 188 191 185 171 175 180 173 168 164 158 148 148 151 156 161 164 166 171 171 166 165 162 150 147 149 150 146 144 147 148 147 146 148 144 142 145 153 132 124 119